Location: Vesunti
(61.5000°N, 22.8333°E)
Time: 14:44:01
(UTC+00:00)

Cosmos 468 - Pass Details

Date: 17 February 2020
Orbit: 761 x 784 km, 74.0° (Epoch: 27 March)

Event Time Altitude Azimuth Distance (km) Brightness Sun altitude
Exits shadow 02:35:46 71° 308° (NW) 811 4.4 -25.5°
Maximum altitude 02:35:46 71° 308° (NW) 811 4.4 -25.5°
Drops below altitude 10° 02:41:01 10° 33° (NNE) 2,315 7.7 -25.0°
Sets 02:43:25 0° 36° (NE) 3,247 8.6 -24.7°
